Location: Aulus
(42.7909°N, 1.3399°E)
Time: 07:27:49
(UTC+00:00)

deb Kosmos- 1980 - Pass Details

Date: 16 October 2025
Orbit: 834 x 854 km, 71.0° (Epoch: 17 November)

Event Time Altitude Azimuth Distance (km) Brightness Sun altitude
Rises 19:54:17 0° 339° (NNW) 3,401 ? -30.6°
Reaches altitude 10° 19:56:50 10° 345° (NNW) 2,461 ? -31.0°
Enters shadow 19:59:39 28° 0° (N) 1,515 ? -31.5°
